When you browse on this site, cookies collect data to enhance your experience and personalize the content and advertising you see.
Visit our Privacy Policy to learn more. By continuing to use the site, you agree to this use of cookies and data.
  • En España
  • Lista de países
  • Para 7 días
  • Temperatura del agua
  • El tiempo en el mapa
  • Informadores
  • user-avatar
    Iniciar sesión

    Tiempo cada hora Saurimo

    Hoy, 10 Diciembre, Martes

    Tiempo Temperatura Precipitaciones Viento Presión Humedad
    00:00 +20°C° 0.4 mm 1 mps 669 mmHg 97%
    01:00 +20°C° 0 mm 1 mps 669 mmHg 97%
    02:00 +20°C° 0.1 mm 1 mps 669 mmHg 97%
    03:00 +20°C° 0.1 mm 1 mps 668 mmHg 98%
    04:00 +20°C° 0.1 mm 1 mps 668 mmHg 98%
    05:00 +20°C° 0.1 mm 1 mps 669 mmHg 97%
    06:00 +21°C° 0.1 mm 1 mps 670 mmHg 96%
    07:00 +20°C° 0.1 mm 2 mps 670 mmHg 95%
    08:00 +21°C° 0.9 mm 2 mps 670 mmHg 93%
    09:00 +23°C° 0.9 mm 2 mps 671 mmHg 91%
    10:00 +24°C° 0.9 mm 2 mps 671 mmHg 89%
    11:00 +25°C° 2.8 mm 2 mps 670 mmHg 89%
    12:00 +25°C° 2.8 mm 1 mps 669 mmHg 89%
    13:00 +25°C° 2.8 mm 1 mps 669 mmHg 89%
    14:00 +24°C° 2.2 mm 1 mps 668 mmHg 91%
    15:00 +24°C° 2.2 mm 2 mps 668 mmHg 92%
    16:00 +23°C° 2.2 mm 2 mps 667 mmHg 94%
    17:00 +22°C° 0.5 mm 1 mps 667 mmHg 95%
    18:00 +22°C° 0.5 mm 1 mps 668 mmHg 95%
    19:00 +21°C° 0.5 mm 1 mps 669 mmHg 96%
    20:00 +21°C° 1.1 mm 1 mps 669 mmHg 97%
    21:00 +21°C° 1.1 mm 1 mps 669 mmHg 97%
    22:00 +20°C° 1.1 mm 2 mps 670 mmHg 98%
    23:00 +19°C° 1.4 mm 2 mps 669 mmHg 98%

    Mañana, 11 Diciembre, Miércoles

    Tiempo Temperatura Precipitaciones Viento Presión Humedad
    00:00 +20°C° 1.4 mm 1 mps 669 mmHg 98%
    01:00 +20°C° 1.4 mm 1 mps 669 mmHg 99%
    02:00 +20°C° 0.8 mm 1 mps 669 mmHg 99%
    03:00 +19°C° 0.8 mm 2 mps 668 mmHg 99%
    04:00 +19°C° 0.8 mm 2 mps 668 mmHg 99%
    05:00 +19°C° 0.2 mm 2 mps 669 mmHg 98%
    06:00 +20°C° 0.2 mm 1 mps 669 mmHg 98%
    07:00 +20°C° 0.2 mm 1 mps 670 mmHg 98%
    08:00 +20°C° 0 mm 2 mps 670 mmHg 95%
    09:00 +21°C° 0 mm 2 mps 670 mmHg 92%
    10:00 +23°C° 0 mm 2 mps 670 mmHg 89%
    11:00 +24°C° 0 mm 2 mps 670 mmHg 83%
    12:00 +26°C° 0 mm 2 mps 669 mmHg 77%
    13:00 +27°C° 0 mm 1 mps 669 mmHg 70%
    14:00 +27°C° 0.5 mm 1 mps 669 mmHg 75%
    15:00 +27°C° 0.5 mm 1 mps 668 mmHg 79%
    16:00 +26°C° 0.5 mm 1 mps 668 mmHg 83%
    17:00 +25°C° 0.3 mm 1 mps 668 mmHg 86%
    18:00 +21°C° 0.3 mm 0 mps 668 mmHg 89%
    19:00 +19°C° 0.3 mm 0 mps 668 mmHg 91%
    20:00 +21°C° 0.3 mm 1 mps 669 mmHg 92%
    21:00 +19°C° 0.3 mm 2 mps 669 mmHg 93%
    22:00 +19°C° 0.3 mm 2 mps 669 mmHg 94%
    23:00 +19°C° 0.7 mm 2 mps 669 mmHg 96%

    Pasado mañana, 12 Diciembre, Jueves

    Tiempo Temperatura Precipitaciones Viento Presión Humedad
    00:00 +18°C° 0.7 mm 2 mps 669 mmHg 97%
    01:00 +18°C° 0.7 mm 2 mps 669 mmHg 98%
    02:00 +19°C° 0.9 mm 1 mps 669 mmHg 98%
    03:00 +19°C° 0.9 mm 1 mps 669 mmHg 98%
    04:00 +17°C° 0.9 mm 0 mps 669 mmHg 98%
    05:00 +19°C° 0.8 mm 1 mps 669 mmHg 98%
    06:00 +20°C° 0.8 mm 1 mps 670 mmHg 98%
    07:00 +19°C° 0.8 mm 2 mps 670 mmHg 97%
    08:00 +20°C° 0 mm 1 mps 670 mmHg 96%
    09:00 +21°C° 0 mm 1 mps 670 mmHg 94%
    10:00 +21°C° 0 mm 1 mps 671 mmHg 93%
    11:00 +23°C° 0.4 mm 1 mps 670 mmHg 89%
    12:00 +24°C° 0.4 mm 2 mps 670 mmHg 86%
    13:00 +25°C° 0.4 mm 2 mps 670 mmHg 83%
    14:00 +24°C° 0.9 mm 2 mps 669 mmHg 86%
    15:00 +23°C° 0.9 mm 1 mps 669 mmHg 89%
    16:00 +23°C° 0.9 mm 1 mps 669 mmHg 92%
    17:00 +22°C° 0.1 mm 1 mps 669 mmHg 93%
    18:00 +21°C° 0.1 mm 1 mps 669 mmHg 95%
    19:00 +21°C° 0.1 mm 1 mps 669 mmHg 96%
    20:00 +21°C° 0 mm 1 mps 670 mmHg 96%
    21:00 +20°C° 0 mm 1 mps 670 mmHg 97%
    22:00 +20°C° 0 mm 1 mps 670 mmHg 97%
    23:00 +20°C° 0.1 mm 1 mps 670 mmHg 97%

    13 Diciembre, Viernes

    Tiempo Temperatura Precipitaciones Viento Presión Humedad
    00:00 +20°C° 0.1 mm 1 mps 670 mmHg 97%
    01:00 +20°C° 0.1 mm 1 mps 669 mmHg 98%
    02:00 +20°C° 0 mm 1 mps 669 mmHg 97%
    03:00 +20°C° 0 mm 1 mps 669 mmHg 97%
    04:00 +19°C° 0 mm 1 mps 669 mmHg 97%
    05:00 +20°C° 0 mm 1 mps 670 mmHg 96%
    06:00 +20°C° 0 mm 1 mps 670 mmHg 95%
    07:00 +21°C° 0 mm 1 mps 671 mmHg 94%
    08:00 +22°C° 0 mm 1 mps 671 mmHg 89%
    09:00 +23°C° 0 mm 1 mps 671 mmHg 83%
    10:00 +25°C° 0 mm 1 mps 671 mmHg 78%
    11:00 +26°C° 0 mm 1 mps 671 mmHg 73%
    12:00 +27°C° 0 mm 1 mps 670 mmHg 69%
    13:00 +29°C° 0 mm 1 mps 670 mmHg 64%
    14:00 +28°C° 0 mm 1 mps 669 mmHg 65%
    15:00 +28°C° 0 mm 1 mps 669 mmHg 66%
    16:00 +28°C° 0 mm 1 mps 668 mmHg 67%
    17:00 +26°C° 0.3 mm 1 mps 669 mmHg 75%
    18:00 +24°C° 0.3 mm 1 mps 669 mmHg 82%
    19:00 +22°C° 0.3 mm 1 mps 669 mmHg 90%
    20:00 +21°C° 1 mm 1 mps 669 mmHg 92%
    21:00 +21°C° 1 mm 1 mps 669 mmHg 94%
    22:00 +20°C° 1 mm 1 mps 670 mmHg 95%
    23:00 +20°C° 0.1 mm 1 mps 669 mmHg 96%

    14 Diciembre, Sábado

    Tiempo Temperatura Precipitaciones Viento Presión Humedad
    00:00 +20°C° 0.1 mm 1 mps 669 mmHg 96%
    01:00 +20°C° 0.1 mm 1 mps 669 mmHg 96%
    02:00 +20°C° 0 mm 1 mps 669 mmHg 96%
    03:00 +20°C° 0 mm 1 mps 669 mmHg 96%
    04:00 +20°C° 0 mm 1 mps 669 mmHg 96%
    05:00 +21°C° 0 mm 1 mps 669 mmHg 95%
    06:00 +21°C° 0 mm 1 mps 670 mmHg 94%
    07:00 +22°C° 0 mm 1 mps 670 mmHg 94%
    08:00 +23°C° 0.6 mm 1 mps 671 mmHg 90%
    09:00 +24°C° 0.6 mm 1 mps 671 mmHg 86%
    10:00 +26°C° 0.6 mm 1 mps 671 mmHg 82%
    11:00 +26°C° 0.8 mm 1 mps 671 mmHg 81%
    12:00 +26°C° 0.8 mm 2 mps 670 mmHg 80%
    13:00 +26°C° 0.8 mm 2 mps 669 mmHg 79%
    14:00 +26°C° 1 mm 2 mps 669 mmHg 81%
    15:00 +26°C° 1 mm 2 mps 669 mmHg 83%
    16:00 +26°C° 1 mm 1 mps 668 mmHg 85%
    17:00 +24°C° 0.9 mm 1 mps 669 mmHg 88%
    18:00 +23°C° 0.9 mm 1 mps 669 mmHg 91%
    19:00 +21°C° 0.9 mm 1 mps 669 mmHg 94%
    20:00 +21°C° 0 mm 1 mps 669 mmHg 95%
    21:00 +21°C° 0 mm 1 mps 670 mmHg 96%
    22:00 +21°C° 0 mm 1 mps 670 mmHg 97%
    23:00 +21°C° 0.1 mm 1 mps 670 mmHg 97%

    15 Diciembre, Domingo

    Tiempo Temperatura Precipitaciones Viento Presión Humedad
    00:00 +20°C° 0.1 mm 1 mps 669 mmHg 97%
    01:00 +20°C° 0.1 mm 1 mps 669 mmHg 97%
    02:00 +20°C° 0.2 mm 1 mps 669 mmHg 97%
    03:00 +20°C° 0.2 mm 1 mps 669 mmHg 97%
    04:00 +20°C° 0.2 mm 1 mps 669 mmHg 98%
    05:00 +20°C° 0 mm 1 mps 669 mmHg 97%
    06:00 +21°C° 0 mm 1 mps 670 mmHg 96%
    07:00 +21°C° 0 mm 1 mps 670 mmHg 95%
    08:00 +23°C° 0.4 mm 1 mps 670 mmHg 90%
    09:00 +24°C° 0.4 mm 1 mps 671 mmHg 85%
    10:00 +25°C° 0.4 mm 1 mps 671 mmHg 80%
    11:00 +26°C° 1 mm 2 mps 670 mmHg 79%
    12:00 +26°C° 1 mm 2 mps 669 mmHg 79%
    13:00 +27°C° 1 mm 2 mps 668 mmHg 79%
    14:00 +27°C° 0.4 mm 2 mps 668 mmHg 78%
    15:00 +27°C° 0.4 mm 2 mps 668 mmHg 78%
    16:00 +27°C° 0.4 mm 2 mps 667 mmHg 78%
    17:00 +25°C° 0.6 mm 2 mps 668 mmHg 83%
    18:00 +23°C° 0.6 mm 1 mps 668 mmHg 89%
    19:00 +22°C° 0.6 mm 1 mps 668 mmHg 95%
    20:00 +21°C° 0.5 mm 1 mps 668 mmHg 95%
    21:00 +21°C° 0.5 mm 1 mps 669 mmHg 95%
    22:00 +21°C° 0.5 mm 1 mps 669 mmHg 95%
    23:00 +20°C° 0 mm 1 mps 669 mmHg 96%
    Mostrar más